Probability
0 0 0 0 0 0 0 0 0 0 0 0 0 0 0 0 0 0 0 0 0 0 0 0 0 0 0 0 0 0 0 0 0 0 0 0 0 0
0 0 0 0 0 0 0 0 0 0 0 0 0 0 0 0 0 0 0 0 0 0 0 0 0 0 0 0 0 0 0 0 0 0 0 0 0 0
0 0 0 0 0 0 0 0 0 0 0 0 0 0 0 0 0 0 0 0 0 0 0 0 0 0 0 0 0 0 0 0 0 0 0 0 0 0
0 0 0 0 0 0 0 0 0 0 0 0 0 0 0 0 0 0 0 0 0 0 0 0 0 0 0 0 0 0 0 0 0 0 0 0 0 0
0 0 0 0 0 0 0 0 0 0 0 0 0 0 0 0 0 0 0 0 0 0 0 0 0 0 0 0 0 0 0 0 0 0 0 0 0 0
0 0 0 0 0 0 0 0 0 0 0 0 0 0 0 0 0 0 0 0 0 0 0 0 0 0 0 0 0 0 0 0 0 0 0 0 0 0
0 0 0 0 0 0 0 0 0 0 0 0 0 0 0 0 0 0 0 0 0 0 0 0 0 0 0 0 0 0 0 0 0 0 0 0 0 0
0 0 0 0 0 0 0 0 0 0 0 0 0 0 0 0 0 0 0 0 0 0 0 0 0 0 0 0 0 0 0 0 0 0 0 0 0 0
0 0 0 0 0 0 0 0 0 0 0 0 0 0 0 0 0 0 0 0 0 0 0 0 0 0 0 0 0 0 0 0 0 0 0 0 0 0
0 0 0 0 0 0 0 0 0 0 0 0 0 0 0 0 0 0 0 0 0 0 0 0 0 0 0 0 0 0 0 0 0 0 0 0 0 0
0 0 0 0 0 0 0 0 0 0 0 0 0 0 0 0 0 0 0 0 0 0 0 0 0 0 0 0 0 0 0 0 0 0 0 0 0 0
0 0 0 0 0 0 0 0 0 0 0 0 0 0 0 0 0 0 0 0 0 0 0 0 0 0 0 0 0 0 0 0 0 0 0 0 0 0
0 0 0 0 0 0 0 0 0 0 0 0 0 0 0 0 0 0 0 0 0 0 0 0 0 0 0 0 0 0 0 0 0 0 0 0 0 0
0 0 0 0 0 0 0 0 0 0 0 0 0 0 0 0 0 0 0 0 0 0 0 0 0 0 0 0 0 0 0 0 0 0 0 0 0 0
0 0 0 0 0 0 0 0 0 0 0 0 0 0 0 0 0 0 0 0 0 0 0 0 0 0 0 0 0 0 0 0 0 0 0 0 0 0
0 0 0 0 0 0 0 0 0 0 0 0 0 0 0 0 0 0 0 0 0 0 0 0 0 0 0 0 0 0 0 0 0 0 0 0 0 0
0 0 0 0 0 0 0 0 0 0 0 0 0 0 0 0 0 0 0 0 0 0 0 0 0 0 0 0 0 0 0 0 0 0 0 0 0 0
0 0 0 0 0 0 0 0 0 0 0 0 0 0 0 0 0 0 0 0 0 0 0 0 0 0 0 0 0 0 0 0 0 0 0 0 0 0
0 0 0 0 0 0 0 0 0 0 0 0 0 0 0 0 0 0 0 0 0 0 0 0 0 0 0 0 0 0 0 0 0 0 0 0 0 0
0 0 0 0 0 0 0 0 0 0 0 0 0 0 0 0 0 0 0 0 0 0 0 0 0 0 0 0 0 0 0 0 0 0 0 0 0 0
0 0 0 0 0 0 0 0 0 0 0 0 0 0 0 0 0 0 0 0 0 0 0 0 0 0 0 0 0 0 0 0 0 0 0 0 0 0
0 0 0 0 0 0 0 0 0 0 0 0 0 0 0 0 0 0 0 0 0 0 0 0 0 0 0 0 0 0 0 0 0 0 0 0 0 0
0 0 0 0 0 0 0 0 0 0 0 0 0 0 0 0 0 0 0 0 0 0 0 0 0 0 0 0 0 0 0 0 0 0 0 0 0 0
Wind_Speed
3 3 3 2 2 2 2 3 4 2 1 2 2 3 3 2 5 5 5 10 12 12 12 12 12 12 12 12 13 13 13 13 13 13 13 13 13 13
3 4 3 2 2 2 2 2 2 4 2 1 1 2 3 3 6 5 5 10 11 11 11 11 11 11 11 11 11 11 11 12 12 12 12 11 11 12
3 4 3 3 2 2 2 2 2 3 3 1 1 2 3 3 4 4 4 4 5 10 10 10 10 10 11 10 10 10 10 10 10 10 10 10 10 11
3 3 3 3 3 2 2 3 2 2 3 2 1 2 3 2 3 3 3 3 3 7 8 8 8 9 9 9 9 9 9 9 9 9 9 9 9 10
3 3 2 3 3 2 2 2 2 2 2 3 1 1 2 2 3 3 3 3 3 4 6 7 7 8 8 7 7 8 8 7 7 7 8 8 8 9
2 2 2 3 3 3 3 2 3 3 3 3 1 1 1 2 2 2 3 3 3 4 5 5 6 7 7 7 7 6 6 6 6 7 7 7 7 8
2 2 2 3 4 4 3 3 4 3 2 2 1 1 1 1 1 1 1 2 3 2 3 3 3 3 4 6 6 6 6 6 6 6 6 6 6 7
2 1 2 2 3 4 5 5 5 4 3 2 1 1 1 1 1 0 0 1 2 2 2 3 2 3 3 2 5 6 6 5 5 5 6 6 6 6
3 2 2 2 2 2 4 4 3 3 4 4 3 3 2 3 2 0 1 1 2 2 1 2 2 3 3 4 7 6 5 5 5 5 6 6 6 7
2 3 3 2 2 4 3 3 2 1 0 2 2 3 2 2 3 2 2 1 2 2 0 1 3 3 3 4 7 7 5 5 5 6 6 6 6 7
1 2 3 2 4 5 4 3 1 2 1 2 1 1 1 2 3 2 1 1 2 2 0 1 2 3 3 3 5 7 6 6 6 6 7 6 6 6
1 1 3 4 5 6 4 4 2 1 0 2 2 3 2 2 2 2 2 1 1 2 1 0 1 2 3 3 3 4 4 5 6 7 7 7 7 4
2 2 2 5 5 6 5 4 4 3 1 1 1 2 2 2 2 1 0 2 2 2 2 1 0 0 1 3 3 3 3 3 3 4 6 7 7 4
4 3 3 5 5 5 4 4 4 3 2 1 1 1 1 2 2 1 1 1 1 2 2 1 1 1 1 2 4 3 3 3 3 3 4 6 6 7
3 5 5 5 4 3 3 4 3 2 2 1 1 1 1 2 1 1 2 1 1 2 2 1 1 1 1 2 3 3 4 3 3 3 4 4 4 4
2 3 4 4 2 2 2 1 1 2 2 2 1 1 1 1 1 1 1 2 2 3 2 2 1 1 2 3 3 4 3 4 4 4 4 4 4 4
4 2 2 2 1 1 1 1 1 1 1 1 1 1 1 1 1 1 0 1 1 2 3 3 2 2 2 3 3 4 4 4 4 5 5 5 5 5
6 3 2 2 2 2 2 1 1 1 1 1 1 1 1 1 1 1 0 0 1 2 3 3 3 3 3 2 3 4 3 4 5 5 4 5 7 6
4 3 2 2 2 2 2 2 2 2 1 2 2 1 1 1 1 1 1 1 2 2 3 2 2 2 3 5 4 2 3 4 4 4 4 5 7 7
2 3 3 3 2 2 2 2 2 1 1 2 1 1 1 1 1 1 1 2 2 2 3 2 2 2 3 4 4 4 5 4 4 5 5 5 6 8
3 2 3 3 3 3 3 2 2 2 2 2 2 2 2 1 2 2 2 3 2 2 3 4 4 5 3 2 3 4 4 5 6 5 6 6 7 6
3 3 3 3 3 3 2 2 2 2 2 2 2 2 2 2 2 3 2 2 2 3 4 3 3 2 1 3 5 6 5 5 6 8 8 6 5 6
3 3 3 3 2 2 2 3 3 3 3 3 2 2 2 2 2 2 3 2 2 3 3 3 2 2 3 3 5 5 7 7 5 5 6 8 11 13
Wind_Direction
91 93 90 80 92 99 116 133 138 123 356 328 343 347 357 13 17 22 22 34 38 41 44 47 48 48 49 48 47 46 45 45 45 43 42 41 40 40
87 90 82 77 78 84 100 99 112 134 141 311 322 335 355 22 32 27 27 31 35 39 42 43 44 45 45 44 43 42 42 42 41 40 38 37 36 35
82 93 88 87 85 81 85 90 89 108 124 347 355 354 11 17 11 15 23 21 23 34 37 40 42 41 40 40 39 39 38 37 34 33 32 30 29 28
103 101 97 97 84 81 89 93 99 108 128 126 359 3 7 4 3 9 14 22 20 29 33 36 38 36 33 33 33 32 32 32 30 27 25 24 23 21
123 124 125 116 100 92 93 96 94 91 96 120 74 3 359 3 15 14 17 5 9 20 26 29 31 28 26 26 26 23 22 22 23 21 18 17 15 14
114 125 136 141 143 134 116 114 107 94 87 95 75 18 359 348 23 18 10 4 360 7 13 15 17 14 12 14 13 12 12 10 10 11 10 7 4 2
102 104 132 148 155 151 140 143 127 112 101 93 68 19 346 350 343 340 4 345 344 357 353 359 359 358 355 357 359 360 1 1 2 2 358 355 353 353
130 112 92 91 114 123 129 138 143 142 147 137 146 192 266 260 272 285 312 357 334 341 1 337 359 338 329 332 343 348 352 354 354 353 350 350 350 349
151 143 124 109 108 100 94 92 98 121 152 159 170 209 221 221 189 214 239 236 264 302 357 321 337 326 321 335 343 348 352 354 354 353 352 351 350 348
158 157 152 152 140 135 113 86 61 33 144 160 179 213 213 200 183 187 193 213 291 309 86 302 321 312 322 322 341 354 2 1 356 353 349 346 344 344
166 157 162 172 168 144 126 121 62 343 22 109 129 111 135 147 139 106 77 55 331 317 332 237 302 310 310 314 337 359 1 356 351 348 345 345 343 341
157 180 189 185 179 163 154 154 168 261 11 43 35 19 21 43 98 144 169 162 247 297 293 233 305 340 327 313 327 342 348 345 344 343 343 342 342 340
180 196 203 188 185 181 172 177 193 179 142 113 52 15 14 18 10 6 176 168 184 245 258 175 249 317 282 303 313 319 331 332 338 336 337 339 338 338
190 196 194 179 181 180 180 188 177 144 119 101 63 356 341 331 326 329 309 258 230 239 266 174 205 217 253 292 296 313 320 317 322 323 324 327 325 324
187 175 169 165 165 170 173 171 156 139 136 144 221 261 269 279 311 338 342 335 320 315 319 252 232 238 216 249 278 295 311 313 317 320 321 319 313 316
171 151 143 134 127 119 108 135 144 153 162 188 223 258 293 337 339 338 341 347 352 333 331 325 283 239 252 257 262 283 288 297 313 314 310 305 302 298
140 112 104 109 116 107 91 90 112 125 161 195 199 256 302 318 317 337 352 15 350 322 329 337 332 301 253 255 275 279 288 294 296 307 310 304 297 297
137 143 158 166 175 183 183 184 174 188 200 188 188 210 240 262 294 334 358 288 285 293 302 317 338 347 339 300 242 270 290 290 299 304 301 302 302 302
134 151 164 177 186 186 187 187 202 209 188 178 192 211 226 247 277 302 311 303 292 291 298 315 341 353 331 316 306 266 282 300 309 307 301 296 298 304
150 164 177 182 186 188 188 190 197 186 180 192 199 206 209 221 254 268 269 276 283 296 306 310 297 279 272 285 290 299 286 284 300 304 303 299 292 292
182 182 184 186 192 194 193 192 192 197 200 197 207 213 216 219 245 257 262 276 281 285 288 288 282 285 283 294 296 295 289 283 284 292 303 309 312 311
184 191 193 193 195 196 192 188 192 204 209 214 218 219 219 220 234 242 247 262 267 270 277 287 304 318 299 281 290 298 303 308 306 301 291 283 300 305
196 197 197 195 196 195 192 193 200 214 217 219 222 222 220 230 238 240 248 254 267 279 291 298 308 305 291 282 290 298 303 312 318 320 309 299 297 295